Volver al catálogo

COSMOS 535

ActivoMilitarLEO
NORAD 6270·PAYLOAD·🇷🇺 Russia

Lanzado Nov 1, 1972 desde Plesetsk Cosmodrome

Loading…

Próximos Pases (próximas 24 horas)

TLE

ActualizadoSource: Space-Track

Época: Sep 14, 2026, 15:04 UTC

1 06270U 72087H   26257.62803339  .00000007  00000-0  13656-3 0  9996
2 06270  74.0342 131.3790 0054842 244.9095 143.0191 12.59355095476298

Sigue COSMOS 535 en tiempo real con AllMySat

Download on the App Store